Regional Weather Roundup
Issued by NWS Green Bay, WI

Home | Current Version | Previous Version | Graphics & Text | Print | Product List | Glossary Off
Versions: 1 2 3 4 5 6 7 8 9 10 11 12 13 14 15 16 17 18 19 20 21 22 23 24 25 26 27 28 29 30 31 32 33 34 35 36 37 38 39 40 41 42 43 44 45 46 47 48 49 50

000
ASUS43 KGRB 180359
RWRGRB

NORTH-CENTRAL AND NORTHEAST WISCONSIN REGIONAL WEATHER ROUNDUP
NATIONAL WEATHER SERVICE GREEN BAY WI
1000 PM CST WED DEC 17 2014

WIZ005-009-010>012-018-019-180500-
NORTH CENTRAL WISCONSIN

CITY           SKY/WX    TMP DP  RH WIND       PRES   REMARKS
IRONWOOD       CLOUDY    21  18  86 NE8       30.23S
MANITOWISH WTR NOT AVBL
ARBOR VITAE    NOT AVBL
EAGLE RIVER    NOT AVBL
LAND O LAKES   NOT AVBL
RHINELANDER    CLOUDY    20  17  88 VRB6      30.20S
PHILLIPS       NOT AVBL
ANTIGO         NOT AVBL
TOMAHAWK       NOT AVBL
MERRILL        NOT AVBL
$$

WIZ013-073-180500-
NORTHEAST WISCONSIN

CITY           SKY/WX    TMP DP  RH WIND       PRES   REMARKS
IRON MOUNTAIN  CLOUDY    25  21  85 N12       30.18S
MARINETTE      CLOUDY    27  19  74 N9        30.20R
$$

WIZ017-030-035>037-045-180500-
CENTRAL WISCONSIN

CITY           SKY/WX    TMP DP  RH WIND       PRES   REMARKS
MEDFORD        NOT AVBL
WAUSAU         CLOUDY    23  19  85 VRB5      30.20S
MOSINEE        CLOUDY    23  19  86 N6        30.22S
MARSHFIELD     CLOUDY    20  14  77 W8        30.23S
WISC RAPIDS    CLOUDY    19  12  74 W9        30.27R WCI   8
STEVENS POINT  NOT AVBL
WAUPACA        NOT AVBL
SHAWANO        NOT AVBL
CLINTONVILLE   NOT AVBL
$$

WIZ038-039-048-051-180500-
FOX VALLEY

CITY           SKY/WX    TMP DP  RH WIND       PRES   REMARKS
NWS GREEN BAY  CLOUDY    27  20  75 NW7       30.22R
APPLETON       CLOUDY    23  16  74 W10       30.22S
OSHKOSH        CLOUDY    22  15  75 W10       30.23S
FOND DU LAC    CLOUDY    22  14  71 VRB3      30.25R
$$

WIZ022-050-052-180500-
EAST CENTRAL WISCONSIN

CITY           SKY/WX    TMP DP  RH WIND       PRES   REMARKS
STURGEON BAY   CLOUDY    27  21  80 NW13      30.20S
MANITOWOC      NOT AVBL
SHEBOYGAN      CLOUDY    22  15  75 W9        30.23R
$$

LMZ563-521-522-541>543-180500-
LAKESHORE

STATION/POSITION TIME  TEMP    WIND        PRES    VSBY  WAVE
                       AIR SEA DIR/SP/G                  HT/PER
                 (UTC) (F)     (DEG/KT/KT) (MB)    (MI)  (FT/S)
SHEBOYGAN LKSHOR 0300   23 34  280/ 11/ 12 1024.7R
KEWAUNEE LKSHORE 0300   27     320/  5/ 10 1021.7S
ALGOMA MARINA    0300          340/ 13/ 17   N/A
NORTHPORT PIER   0300   30     340/ 18/ 24 1022.0R
SISTER BAY LKSHO 0300           20/ 22/ 24   N/A
CHAMBERS ISLAND  0300   28     310/ 11/ 16 1022.4S
MENOMINEE LKSHOR 0300   27     300/ 10/ 14 1023.1F
$$


USA.gov is the U.S. government's official web portal to all federal, state and local government web resources and services.